Regional Weather Roundup
Issued by NWS Grand Forks, ND

Home | Current Version | Previous Version | Graphics & Text | Print | Product List | Glossary On
Versions: 1 2 3 4 5 6 7 8 9 10 11 12 13 14 15 16 17 18 19 20 21 22 23 24 25 26 27 28 29 30 31 32 33 34 35 36 37 38 39 40 41 42 43 44 45 46 47 48 49 50
000
ASUS43 KFGF 210931
RWRFGF
PRAIRIE TO PINES  WEATHER ROUNDUP
NATIONAL WEATHER SERVICE EASTERN NORTH DAKOTA/GRAND FORKS ND
400 AM CDT TUE APR 21 2015

 **SATELLITE DATA USED TO AUGMENT SKY COVER AT AUTOMATED STATIONS**
 *****  WEATHER ACROSS EASTERN NORTH DAKOTA  *****

CITY           SKY/WX    TMP DP  RH WIND       PRES   REMARKS
GRAND FORKS    CLOUDY    34  28  80 NW18G28   29.64R WCI  23
GRAND FRKS AFB CLOUDY    32  27  80 N21G26    29.65R WCI  20
GRAND FRKS NWS   N/A     32 N/A N/A NW26        N/A  WCI  18
DEVILS LAKE    CLOUDY    34  23  64 N23G30    29.72R WCI  22
FARGO          CLOUDY    35  27  72 N20       29.65R WCI  24
WAHPETON ARPT  CLOUDY    32  27  80 NW17G23   29.65S WCI  21
$$

 ***** WEATHER ACROSS CENTRAL AND WESTERN NORTH DAKOTA  *****

CITY           SKY/WX    TMP DP  RH WIND       PRES   REMARKS
BISMARCK       LGT SNOW  33  31  92 N8        29.83R FOG
MINOT          MOCLDY    31  21  66 NW12      29.82S WCI  22
JAMESTOWN      CLOUDY    32  24  72 NW17      29.71S WCI  21
MINOT AFB      MOCLDY    29  24  82 NW9       29.82R WCI  20
GARRISON         N/A     32  30  92 NW9       29.82S WCI  24
WILLISTON      CLOUDY    34  23  64 NE6       29.85S
DICKINSON      CLOUDY    36  19  50 NE12      29.80R
HETTINGER      CLOUDY    33  22  63 N9        29.79R
$$

 *****  OTHER AIRPORT OBSERVATIONS IN OUR AREA  *****

CITY           SKY/WX    TMP DP  RH WIND       PRES   REMARKS
WALHALLA       CLOUDY    32  32 100 NW20G26   29.70R WCI  20
GRAFTON AIRPOR FLURRIES  34  32  93 N24G36    29.66R WCI  21
VALLEY CITY AR FLURRIES  34  25  69 N21G33    29.69R WCI  22
CANDO          CLOUDY    32  25  74 N23G30    29.76R WCI  19
CAVALIER APRT  CLOUDY    32  28  86 N24G33    29.68R WCI  19
GWINNER        CLOUDY    34  27  75 NW16      29.71R WCI  23
SHEYENNE NWR     N/A     35  25  66 NW12      29.95
ROLLA          CLOUDY    32  25  74 N21G32    29.77R WCI  20
 ***** THE ABOVE OBSERVATIONS ARE NON NWS ARE NOT QUALITY
       CONTROLLED AND MAY MIS-REPORT RAIN FOR SNOW...
$$

  *****  WEATHER ACROSS NORTHERN MINNESOTA  *****

CITY           SKY/WX    TMP DP  RH WIND       PRES   REMARKS
FLAG ISLAND    LGT SNOW  30  27  86 N23G29    29.49R WCI  17
WARROAD        FLURRIES  30  27  86 NW13G24   29.52R WCI  20
ROSEAU         CLOUDY    30  25  80 N20G28    29.54R WCI  18
HALLOCK        CLOUDY    32  28  86 N22       29.62R WCI  19
THF RVR FALLS  CLOUDY    30  25  80 NW18      29.57R WCI  18
BAUDETTE       CLOUDY    30  25  81 N18G28    29.45R WCI  18
WASKISH        LGT SNOW  30  28  93 W14G22    29.46R WCI  20
CROOKSTON      CLOUDY    34  28  80 N22G28    29.61S WCI  22
$$
  *****  WEATHER ACROSS CENTRAL AND WEST MINNESOTA  *****

CITY           SKY/WX    TMP DP  RH WIND       PRES   REMARKS
FOSSTON        CLOUDY    28  27  93 NW18G24   29.55R WCI  16
BEMIDJI        LGT SNOW  29  26  87 NW17G23   29.48S WCI  17
PARK RAPIDS    CLOUDY    35  25  66 NW21G26   29.49S WCI  24
ELBOW LAKE     CLOUDY    32  26  80 NW17      29.61S WCI  21
WADENA         MIX PCPN  30  25  80 NW17G23   29.53S WCI  18
DETROIT LAKES  MOCLDY    32  30  93 NW22G30   29.57S WCI  19
MOORHEAD       CLOUDY    34  27  75 NW22G28   29.64R WCI  22
FERGUS FALLS   CLOUDY    32  25  74 NW15      29.63S WCI  22
MORRIS MN      CLOUDY    34  28  80 NW21      29.63S WCI  22
STAPLES        CLOUDY    30  25  80 W15       29.52S WCI  19
$$
  *****  WEATHER ELSEWHERE ACROSS MINNESOTA  *****

CITY           SKY/WX    TMP DP  RH WIND       PRES   REMARKS
DULUTH         FLURRIES  31  26  82 W13G23    29.34S WCI  21
INTRNTL FALLS  LGT SNOW  30  26  85 N13       29.38R FOG     WCI  20
ELY            LGT SNOW  30  28  93 W10       29.29S WCI  21
CLOQUET        CLOUDY    30  27  86 W14G21    29.38S WCI  20
WHEATON        CLOUDY    32  23  69 NW15G23   29.68R WCI  22
BRAINERD       CLOUDY    32  24  72 NW16G24   29.49S WCI  21
HIBBING        LGT SNOW  30  26  85 NW13G20   29.36S FOG     WCI  20
ALEXANDRIA     CLOUDY    32  23  69 NW22G31   29.58S WCI  19
SAINT CLOUD    CLOUDY    34  23  64 W20G36    29.52S WCI  23
MINNEAPOLIS    CLOUDY    36  26  67 W16       29.52S
$$

  *****  WEATHER ACROSS SOUTH DAKOTA  *****

CITY           SKY/WX    TMP DP  RH WIND       PRES   REMARKS
SIOUX FALLS    CLEAR     32  22  66 W6        29.72F
BROOKINGS      CLEAR     32  23  69 NW13      29.71R WCI  22
WATERTOWN      CLEAR     32  25  75 NW16      29.69R WCI  21
HURON          CLEAR     29  16  58 NW9       29.76R WCI  20
SISSETON         N/A     33  26  75 NW18G30   29.67R WCI  22
ABERDEEN       PTCLDY    32  22  66 NW13      29.77R WCI  22
MITCHELL       CLEAR     30  12  47 W9        29.77F WCI  22
PIERRE         CLEAR     32  19  58 SW10      29.78F WCI  24
MOBRIDGE       CLOUDY    35  23  61 N6        29.76R
RAPID CITY     CLEAR     32  21  64 W7        29.83F
$$

  *****  SOME WEATHER IN NEARBY STATES *****

CITY           SKY/WX    TMP DP  RH WIND       PRES   REMARKS
GLASGOW MT     CLEAR     34  21  59 E9        29.76R
GREAT FALLS MT CLEAR     40  27  59 CALM      29.84S
CHEYENNE WY    MOCLDY    34  23  64 W7        29.93F
SCOTTSBLUFF NE CLEAR     29  25  85 NW5       29.92S WCI  24
OMAHA NE       MOCLDY    45  21  38 W12       29.81R
DES MOINES IA  CLEAR     39  21  48 W8        29.75R
DAVENPORT IA   CLEAR     38  30  73 W15       29.67R
CHICAGO IL     CLEAR     40  31  70 W14       29.59S
EAU CLAIRE WI  FLURRIES  34  29  82 W15G23    29.46S WCI  24
LA CROSSE WI   CLOUDY    38  32  79 W13       29.53R
$$

  *****  SOME NATIONAL WEATHER *****

CITY           SKY/WX    TMP DP  RH WIND       PRES   REMARKS
LA GUARDIA NY  LGT RAIN  55  52  89 CALM      29.56S
RALEIGH NC     MOCLDY    59  54  83 VRB3      29.79R
ATLANTA GA     CLEAR     53  43  68 NW9       29.90S
NEW ORLEANS LA MOCLDY    64  49  57 N9        29.97S
OKLAHOMA CITY  CLOUDY    53  42  66 S10       29.94F
ALBUQUERQUE NM PTCLDY    54  26  34 CALM      29.97S
SALT LAKE CITY CLEAR     50  28  42 SE9       29.87F
LOS ANGELES CA MOCLDY    58  50  75 SE5       29.91F
BOISE ID       CLEAR     49  31  49 SE3       29.82F
SEATTLE WA     PTCLDY    57  42  57 NE8       29.87S
$$

*** WEATHER ACROSS MANITOBA...SASKATCHEWAN AND ONTARIO ***
                ***ONTARIO***

CITY           SKY/WX    TMP DP  RH WIND       PRES   REMARKS
GERALDTON      LGT SNOW  28  28 100 W3        29.12R
THUNDER BAY    LGT SNOW  34  32  93 NW7       29.21S
SIOUX LOOKOUT  LGT SNOW  25  23  93 N10       29.34R DRFTSNOWWCI  15
TORONTO        MOCLDY    45  37  76 SW7       29.54F
BIG TROUT LK   LGT SNOW  19  18  93 N16G30    29.51R VSB 1   WCI   5
PICKLE LAKE    NOT AVBL
DRYDEN         LGT SNOW  25  23  93 N9G17     29.37S WCI  15
KENORA         LGT SNOW  27  25  93 N13       29.46R FOG     WCI  16
$$
                *** MANITOBA***

CITY           SKY/WX    TMP DP  RH WIND       PRES   REMARKS
BRANDON        CLOUDY    34  25  69 N17G29    29.82R WCI  23
DAUPHIN        CLOUDY    34  27  75 N14G20    29.89R WCI  24
ISLAND LAKE    FLURRIES  21  16  79 N16G24    29.81R WCI   7
PILOT MOUND      N/A     30  25  80 N23G31      N/A  WCI  17
THE PAS        CLEAR     27  25  93 N5        29.99R WCI  21
THOMPSON       NOT AVBL
WINNIPEG       LGT SNOW  30  28  93 N23       29.68R WCI  17
LYNN LAKE      CLEAR     25  21  86 E5        30.02R WCI  19
CHURCHILL      FLURRIES  16  12  86 NE18G24   30.15S WCI  -1
GILLAM         FLURRIES  18  14  86 NE23      30.01R WCI   0
$$
                ***SASKATCHEWAN***

CITY           SKY/WX    TMP DP  RH WIND       PRES   REMARKS
ESTEVAN        FOG       27  25  93 NW7       29.87R VSB 1/2 WCI  19
KINDERSLEY     CLEAR     30  27  86 NE9       29.91  WCI  22
LLOYDMINSTER   PTCLDY    30  28  93 S8        29.92R WCI  23
PRINCE ALBERT  PTCLDY    19  18  93 NE2       29.98R
REGINA         CLEAR     30  23  74 E6        29.91R WCI  24
YORKTON        CLEAR     27  23  86 N8        29.92R WCI  18
N. BATTLEFORD  CLEAR     23  23 100 SE8       29.97S WCI  14
LA RONGE       PTCLDY    21  18  86 CALM      29.99R
SASKATOON      CLEAR     25  23  93 NE3       29.97R
SWIFT CURRENT  CLEAR     28  25  86 E14       29.85R WCI  17
$$
NOTE: THESE ARE AUTOMATED STATIONS WITH LIMITED QUALITY CONTROL
      "FAIR" INDICATES FEW OR NO CLOUDS BELOW 12,000 FEET WITH NO
      SIGNIFICANT WEATHER AND/OR OBSTRUCTIONS TO VISIBILITY.
      SKY/WX - SKY CONDITION AND SIGNIFICANT WEATHER.
      TMP - AIR TEMPERATURE.    DP   - DEWPOINT TEMPERATURE.
      RH  - RELATIVE HUMIDITY.  PRES - PRESSURE.
      HX  - HEAT INDEX.         WCI  - WIND CHILL INDEX.
$


USA.gov is the U.S. government's official web portal to all federal, state and local government web resources and services.